Location: Domont
(49.0278°N, 2.3264°E)
Time: 02:20:49
(UTC+00:00)

Orbus 7S? - Pass Details

Date: 05 June 2022
Orbit: 340 x 6374 km, 56.9° (Epoch: 04 July)

Event Time Altitude Azimuth Distance (km) Brightness Sun altitude
Rises 23:52:51 0° 237° (WSW) 4,920 7.8 -18.4°
Reaches altitude 10° 23:55:08 10° 238° (WSW) 4,364 7.5 -18.4°
Maximum altitude 00:08:35 86° 328° (NNW) 3,616 7.3 -18.3°
Drops below altitude 10° 00:44:31 10° 63° (ENE) 9,852 10.2 -17.4°
Sets 00:53:26 0° 66° (ENE) 11,056 10.5 -17.0°
